Regional Weather Roundup
Issued by NWS

Home | Current Version | Previous Version | Text Only | Print | Product List | Glossary On
Versions: 1 2 3 4 5 6 7 8 9 10 11 12 13 14 15 16 17 18 19 20 21 22 23 24 25 26 27 28 29 30 31 32 33 34 35 36 37 38 39 40 41 42 43 44 45 46 47 48 49 50
000
ASUS44 KBMX 262110
RWRAL

ALABAMA REGIONAL WEATHER ROUNDUP
NATIONAL WEATHER SERVICE BIRMINGHAM AL
400 PM CDT SUN MAY 26 2019

NOTE: "FAIR" INDICATES FEW OR NO CLOUDS BELOW 12,000 FEET
WITH NO SIGNIFICANT WEATHER AND/OR OBSTRUCTIONS TO VISIBILITY.

THE REMARK "TC" DENOTES TEMPERATURE IN DEGREES CELSIUS.

ALZ001>011-014-016>018-020-262200-
NORTH ALABAMA

CITY           SKY/WX    TMP DP  RH WIND       PRES   REMARKS
MUSCLE SHOALS  FAIR      97  62  31 W13       30.11F HX  98
HUNTSVILLE     FAIR      95  61  32 W12G20    30.11F HX  95
DECATUR        FAIR      93  63  36 W13       30.11F HX  94
HALEYVILLE     FAIR      90  65  43 VRB7      30.16F HX  92
GADSDEN        FAIR      92  67  43 W9        30.12F HX  95
$$

ALZ012-013-022-023-030>036-040>044-262200-
WEST CENTRAL ALABAMA

CITY           SKY/WX    TMP DP  RH WIND       PRES   REMARKS
TUSCALOOSA     FAIR      96  67  38 S9        30.11F HX 100
DEMOPOLIS      FAIR      93  66  40 CALM      30.11F HX  95
$$

ALZ015-024>026-033>036-041>044-262200-
CENTRAL ALABAMA

CITY           SKY/WX    TMP DP  RH WIND       PRES   REMARKS
BIRMINGHAM     FAIR      92  64  39 W7        30.14F HX  93
MONTGOMERY     FAIR      95  67  39 W5        30.10F HX  99
SHELBY CO ARPT FAIR      93  66  40 VRB7      30.12F HX  96
MAXWELL AFB    FAIR      95  66  38 W8        30.09F HX  98
GREENVILLE     FAIR      94  62  34 CALM      30.10F HX  94
SELMA            N/A     95  66  38 CALM      30.09F HX  98
PRATTVILLE     FAIR      93  70  46 S3        30.09F HX  99
BESSEMER       FAIR      92  70  48 SW8       30.13F HX  97
TALLADEGA      FAIR      94  64  36 W7        30.12S HX  96
PELL CITY      NOT AVBL
MARION         FAIR      99  69  37 SW5       30.10F HX 105
SYLACAUGA      FAIR      92  60  33 W9        30.12F HX  92
$$

ALZ019-021-028-029-037-038-045>048-262200-
EAST CENTRAL ALABAMA

CITY           SKY/WX    TMP DP  RH WIND       PRES   REMARKS
ANNISTON       FAIR      92  64  39 SW7       30.11F HX  93
ALEXANDER CITY NOT AVBL
AUBURN         FAIR      93  65  39 NW8       30.13F HX  95
$$

ALZ051>064-262200-
SOUTHWEST ALABAMA

CITY           SKY/WX    TMP DP  RH WIND       PRES   REMARKS
MOBILE         FAIR      95  67  39 S6        30.10F HX  99
BROOKLEY FIELD FAIR      92  73  53 S8        30.10F HX 100
EVERGREEN      FAIR      97  67  37 SW5       30.09F HX 101
$$

ALZ049-050-065>069-262200-
SOUTHEAST ALABAMA

CITY           SKY/WX    TMP DP  RH WIND       PRES   REMARKS
DOTHAN         FAIR      98  58  26 W5        30.10F HX  97
OZARK          FAIR      98  63  31 SW6       30.07F HX  99
TROY           FAIR      94  68  42 NW6       30.11F HX  98
EUFAULA        NOT AVBL
$$



USA.gov is the U.S. government's official web portal to all federal, state and local government web resources and services.